Regional Weather Roundup
Issued by NWS

Home | Current Version | Previous Version | Text Only | Print | Product List | Glossary Off
Versions: 1 2 3 4 5 6 7 8 9 10 11 12 13 14 15 16 17 18 19 20 21 22 23 24 25 26 27 28 29 30 31 32 33 34 35 36 37 38 39 40 41 42 43 44 45 46 47 48 49 50

000
ASUS43 KOAX 042002
RWRNE

WEATHER ROUNDUP FOR NEBRASKA
NATIONAL WEATHER SERVICE OMAHA NE
300 PM CDT FRI SEP 04 2015

NOTES: SATELLITE DATA IS BEING USED TO AUGMENT CLOUD COVER ABOVE
       12000 FEET.
       "FAIR" INDICATES FEW OR NO CLOUDS BELOW 12,000 FEET WITH NO
       SIGNIFICANT WEATHER AND/OR OBSTRUCTIONS TO VISIBILITY.

  * THESE STATIONS DO NOT REPORT WEATHER SUCH AS RAIN...SNOW OR FOG.

NEZ001>004-019>022-054>056-042100-
NEBRASKA PANHANDLE

CITY           SKY/WX    TMP DP  RH WIND       PRES   REMARKS
SCOTTSBLUFF    MOSUNNY   89  43  20 SE7       29.88F
ALLIANCE       SUNNY     90  47  22 CALM      29.87F
CHADRON        SUNNY     91  48  22 W8        29.82F
KIMBALL        MOSUNNY   89  36  15 S8        29.93F
SIDNEY         SUNNY     91  40  16 VRB5      29.92F
$$

NEZ057>060-069>072-079>082-042100-
SOUTHWEST NEBRASKA

CITY           SKY/WX    TMP DP  RH WIND       PRES   REMARKS
NORTH PLATTE   MOSUNNY   89  59  36 VRB3      29.84S
IMPERIAL       MOSUNNY   91  52  26 VRB7      29.87F
LEXINGTON      PTSUNNY   90  61  37 S12       29.84S HX  90
MC COOK        MOSUNNY   94  55  26 NW5       29.84F HX  92
OGALLALA       SUNNY     89  51  27 SW7       29.87S
$$

NEZ005>010-023>029-035>040-094-042100-
NORTH CENTRAL NEBRASKA

CITY           SKY/WX    TMP DP  RH WIND       PRES   REMARKS
VALENTINE      SUNNY     93  52  24 SW5       29.80S HX  90
AINSWORTH      SUNNY     89  62  40 SE8       29.82S HX  90
BROKEN BOW     MOSUNNY   89  63  41 S9G25     29.84S HX  90
O`NEILL        SUNNY     89  64  43 S18       29.81F HX  90
ORD            SUNNY     90  64  42 S17G25    29.82S HX  91
THEDFORD       MOSUNNY   91  61  36 SE8       29.84F HX  90
$$

NEZ041-046>049-061>064-073>077-083>087-042100-
SOUTH CENTRAL NEBRASKA

CITY           SKY/WX    TMP DP  RH WIND       PRES   REMARKS
GRAND ISLAND   SUNNY     91  64  40 S23G31    29.83F HX  92
AURORA         SUNNY     93  65  40 S18G25    29.84F HX  95
HASTINGS       SUNNY     94  64  37 S14G26    29.83F HX  95
HEBRON         SUNNY     92  62  36 S18G26    29.85S HX  92
HOLDREGE       MOSUNNY   92  57  31 S15G24    29.84S HX  90
KEARNEY *      MOSUNNY   91  64  40 S21       29.83F HX  93
YORK           SUNNY     91  66  43 S21G29    29.85S HX  94
$$

NEZ011>018-030>034-042>045-042100-
NORTHEAST NEBRASKA

CITY           SKY/WX    TMP DP  RH WIND       PRES   REMARKS
NORFOLK        MOSUNNY   91  70  49 S17G30    29.83S HX  96
ALBION         SUNNY     88  66  48 S18G26    29.84S HX  90
BLAIR          FAIR      87  69  55 S15G22    29.88F HX  91
COLUMBUS *     MOSUNNY   91  68  46 S16G22    29.83F HX  95
FREMONT        MOSUNNY   88  69  53 SE17G23   29.86F HX  92
TEKAMAH        PTSUNNY   87  72  60 S14G23    29.87S HX  93
$$

NEZ050>053-065>068-078-088>093-042100-
SOUTHEAST NEBRASKA

CITY           SKY/WX    TMP DP  RH WIND       PRES   REMARKS
LINCOLN        MOSUNNY   92  68  45 S22G30    29.85F HX  96
OMAHA EPPLEY   PTSUNNY   88  71  57 SE18      29.88F HX  94
BEATRICE       MOSUNNY   92  67  43 S21       29.87F HX  95
FALLS CITY     MOSUNNY   93  68  43 S14G23    29.91F HX  97
NEBRASKA CITY  PTSUNNY   91  58  32 S17       29.89F HX  90
PLATTSMOUTH    PTSUNNY   84  69  59 SE9       29.89F
$$

NEZ044-045-051>053-067-042100-
OMAHA AREA

CITY           SKY/WX    TMP DP  RH WIND       PRES   REMARKS
EPPLEY FIELD   PTSUNNY   88  71  57 SE18      29.88F HX  94
BLAIR          PTSUNNY   87  69  55 S15G22    29.88F HX  91
FREMONT        MOSUNNY   88  69  53 SE17G23   29.86F HX  92
MILLARD        PTSUNNY   88  72  58 SE14G21   29.87F HX  95
OFFUTT AFB     PTSUNNY   86  73  64 SE12      29.87F HX  93
PLATTSMOUTH    PTSUNNY   84  69  59 SE9       29.89F
WAHOO          FAIR      87  70  57 S13G21    29.86S HX  92
$$



USA.gov is the U.S. government's official web portal to all federal, state and local government web resources and services.